Date,TemperatureHighF,TemperatureAvgF,TemperatureLowF,DewpointHighF,DewpointAvgF,DewpointLowF,HumidityHigh,HumidityAvg,HumidityLow,PressureMaxIn,PressureMinIn,WindSpeedMaxMPH,WindSpeedAvgMPH,GustSpeedMaxMPH,PrecipitationSumIn
2013-2-1,44,29,8,31,18,-100,83,68,56,30.27,30.01,5,-20,11,0.05
2013-2-2,47,39,26,28,21,18,76,49,31,30.19,30.09,14,5,21,0.00
2013-2-3,58,40,25,28,18,10,76,47,15,30.17,29.77,8,2,8,0.00
2013-2-4,49,36,26,27,21,17,76,56,30,29.90,29.74,7,1,10,0.00
2013-2-5,48,41,34,27,25,22,66,52,39,29.95,29.72,7,2,11,0.00
2013-2-6,51,42,31,25,22,20,68,47,33,30.00,29.68,9,2,11,0.00
2013-2-7,49,39,32,21,17,14,59,43,24,30.09,29.96,7,2,7,0.00
2013-2-8,42,34,28,23,20,16,72,56,41,29.95,29.82,6,1,6,0.00
2013-2-9,40,31,24,28,21,17,87,69,46,29.84,29.71,7,3,12,0.00
2013-2-10,31,27,20,25,19,9,88,71,59,30.07,29.67,13,8,19,0.00
2013-2-11,32,21,9,16,10,3,79,63,47,30.17,30.05,4,1,6,0.00
2013-2-12,46,34,19,21,14,6,62,45,33,30.06,29.90,5,2,7,0.00
2013-2-13,48,40,30,28,22,16,77,50,33,29.92,29.71,10,5,13,0.00
2013-2-14,35,28,18,22,14,6,85,57,38,30.34,29.93,12,6,18,0.00
2013-2-15,33,26,18,14,10,5,72,52,34,30.43,30.16,7,2,14,0.00
2013-2-16,56,43,26,25,22,13,61,44,27,30.13,29.75,7,2,10,0.00
2013-2-17,55,40,28,28,21,15,70,50,20,29.74,29.44,13,4,18,0.00
2013-2-18,33,27,15,22,15,9,74,61,50,30.20,29.72,11,6,23,0.00
2013-2-19,24,16,11,12,8,3,83,69,55,30.28,30.15,12,5,16,0.00
2013-2-20,33,23,15,17,11,5,76,61,42,30.14,29.93,12,6,13,0.00
2013-2-21,25,21,16,20,17,13,87,83,75,30.05,29.97,6,3,9,0.02
2013-2-22,37,25,15,25,18,12,87,76,58,30.05,29.83,5,1,5,0.02
2013-2-23,45,34,21,29,13,8,77,44,23,29.82,29.65,4,1,7,0.00
2013-2-24,35,32,27,30,23,16,88,71,56,30.12,29.80,7,4,8,0.02
2013-2-25,49,32,19,16,10,0,63,43,13,30.11,29.82,11,3,20,0.00
2013-2-26,42,33,21,29,21,10,75,61,47,30.13,29.82,9,5,17,0.00
2013-2-27,40,31,22,21,19,15,78,62,40,30.27,30.13,7,3,14,0.00
2013-2-28,41,29,16,26,20,12,86,69,44,30.28,30.20,3,1,5,0.00